SCP
0 -0 0 0 0 0 -0 0 0 0 0 0 0 0 -0 -0 0 1 0 0 0 0 0 0 0 0 0 -0 -1 -1 -0 -0 -1 -0 -0 -0 -0 -0 -0 -0 -0 -0 -0 -0 -0 -0 -0 -0 -0
0 -0 0 -0 0 0 0 0 0 0 0 0 0 0 0 0 0 0 0 0 0 0 0 0 0 0 0 0 -0 -0 -0 -0 -1 -0 -0 -0 -0 -0 -0 -0 -0 -0 -0 -0 -0 -0 -0 -0 -0
-0 -0 -0 0 0 -0 0 0 0 0 0 0 0 0 0 1 1 1 1 0 0 0 0 0 1 1 0 0 0 -0 -0 -0 -0 -0 -0 -0 -0 -0 -0 -0 -0 -0 -0 -0 -0 -0 -0 -0 -0
0 0 0 0 0 0 0 0 0 0 0 0 -0 -0 0 1 1 1 0 0 1 0 0 0 0 1 1 0 0 0 0 -0 -0 -0 -0 0 -0 -0 -0 -0 -0 -0 -0 -0 -0 -0 -0 -0 -0
0 0 -0 0 -0 0 0 0 0 0 0 0 0 0 0 1 1 1 1 0 1 1 0 0 0 0 1 0 0 0 0 0 -0 -0 -0 0 0 -0 -0 -0 -0 -0 -0 -0 -0 -0 -0 0 0
0 0 -0 -0 0 0 0 0 0 0 0 0 0 0 0 1 2 1 1 0 1 1 1 0 0 0 0 1 1 0 0 0 0 0 0 0 0 0 -0 -0 -0 -0 -0 -0 -0 0 0 0 0
0 0 -0 0 -0 -0 0 0 0 0 0 0 0 0 0 2 1 1 1 1 1 1 1 1 0 0 1 1 1 0 0 0 0 0 0 0 0 0 0 -0 -0 -0 -0 -0 0 0 0 0 0
0 0 -0 -0 0 0 0 0 0 0 0 0 0 0 0 1 1 1 1 1 1 2 2 1 1 1 1 1 0 0 0 0 0 0 0 0 0 0 0 0 0 0 -0 0 0 0 0 0 0
0 0 0 0 -0 0 0 0 0 0 0 0 0 0 0 1 1 1 1 1 1 2 2 1 1 1 1 1 1 0 0 0 0 0 0 0 1 0 0 0 0 0 0 0 0 0 0 0 0
0 0 0 0 0 0 0 0 0 0 0 0 0 0 0 0 0 1 1 1 1 1 2 1 1 1 1 0 1 1 1 1 1 1 1 1 0 0 0 0 0 0 0 0 0 0 0 0 0
0 0 0 0 0 0 0 0 0 0 0 0 0 0 0 0 0 0 0 1 1 0 1 0 0 1 1 0 1 1 1 1 1 1 1 1 0 0 1 1 0 0 0 0 0 0 0 0 0
0 0 0 0 0 0 0 0 0 0 0 0 0 0 0 0 0 0 0 0 1 0 0 0 0 0 1 1 1 1 1 1 1 1 1 1 1 1 1 1 0 0 0 0 0 0 0 0 0
0 0 0 0 0 0 0 0 0 0 0 0 0 0 0 0 0 0 0 0 0 0 -0 0 0 1 1 1 1 1 2 1 2 2 2 1 1 2 2 1 1 0 0 0 0 0 0 0 0
0 0 0 0 0 0 0 0 0 0 0 0 0 0 0 0 0 0 0 0 0 0 -0 -0 0 1 1 1 1 1 1 1 2 2 2 2 2 2 2 2 1 1 0 0 0 0 0 0 0
0 0 0 0 0 0 0 0 0 0 0 0 0 0 0 0 0 0 0 0 -0 -0 0 -0 1 1 1 1 2 3 4 4 4 4 3 1 1 3 2 2 2 1 0 1 0 0 0 0 0
0 0 0 0 -0 0 0 0 0 0 0 0 0 0 0 0 0 0 0 0 -0 -0 1 0 1 1 1 1 2 2 2 2 2 2 2 1 2 3 3 2 2 1 0 0 0 0 0 0 0
0 0 0 0 -0 0 0 0 0 0 0 0 0 0 0 0 0 0 -0 0 0 -0 1 1 1 1 2 1 2 1 1 1 1 1 2 1 2 3 3 2 1 0 0 0 0 0 0 0 0
0 0 0 0 0 0 0 0 0 0 0 0 0 0 0 0 0 0 0 0 0 0 0 1 1 2 2 2 1 1 1 1 2 2 3 2 3 3 2 1 0 0 0 0 0 0 0 0 0
0 0 0 0 0 0 0 0 0 0 0 0 0 0 0 0 0 0 0 0 0 0 0 1 0 2 3 2 1 1 1 2 0 0 1 2 1 1 0 0 0 0 0 0 0 0 0 0 0
0 0 0 0 0 0 0 0 0 0 0 0 0 0 0 0 0 0 0 0 0 0 0 1 1 2 3 2 2 2 0 0 0 0 0 0 0 0 0 0 0 0 0 0 0 0 0 0 0
0 0 0 0 0 0 0 0 0 0 0 0 0 0 0 0 0 0 0 0 0 1 1 2 2 2 4 3 0 0 0 0 0 0 0 0 0 0 0 0 0 0 0 0 0 0 0 0 0
0 0 0 0 0 0 0 0 0 0 0 0 0 0 0 0 0 0 0 0 0 0 1 4 5 3 3 1 0 0 0 0 0 0 0 0 0 0 0 0 0 0 0 0 0 0 0 0 0
0 0 0 0 0 0 0 0 0 0 -0 0 0 0 0 0 0 0 0 0 0 0 0 1 4 3 2 0 0 0 0 0 0 0 0 0 0 0 0 0 0 0 0 0 0 0 0 0 0
0 0 0 0 0 0 0 0 0 0 0 0 0 0 0 0 0 0 0 0 0 0 0 0 0 0 0 0 0 0 0 0 0 0 0 0 0 0 0 0 0 0 0 0 0 0 0 0 0
0 0 0 0 0 0 0 0 0 0 0 0 0 0 0 0 0 0 0 0 0 0 0 0 0 0 0 0 0 0 0 0 0 0 0 0 0 0 0 0 0 0 0 0 0 0 0 0 0
0 0 0 0 0 0 0 0 0 0 0 0 0 0 0 0 0 0 0 0 0 0 0 0 0 0 0 0 0 0 0 0 0 0 0 0 0 0 0 0 0 0 0 0 0 0 0 0 0
0 0 0 0 0 0 0 0 0 0 0 0 0 0 0 0 0 0 0 0 0 0 0 0 0 0 0 0 0 0 0 0 0 0 0 0 0 0 0 0 0 0 0 0 0 0 0 0 0
-0 0 0 0 0 0 0 0 0 0 0 0 0 0 0 0 0 0 0 0 0 0 0 0 0 0 0 0 0 0 0 0 0 0 0 0 0 0 0 0 0 0 0 0 0 0 0 0 0
0 0 0 0 0 0 0 0 0 0 0 0 0 0 0 0 0 0 0 0 0 0 0 0 0 0 0 0 0 0 0 0 0 0 0 0 0 0 0 0 0 0 0 0 0 0 0 0 0
0 0 0 0 0 0 0 0 0 0 0 0 0 0 0 0 0 0 0 0 0 0 0 0 0 0 0 0 0 0 0 0 0 0 0 0 0 0 0 0 0 0 0 0 0 0 0 0 0
Wind_Speed_500mb
13 13 21 22 8 12 32 14 7 25 19 28 20 17 20 21 25 12 24 21 35 38 35 52 50 45 43 46 48 47 45 39 33 31 29 25 21 18 17 17 19 20 19 18 18 18 20 22 23
10 10 17 14 10 15 3 13 26 21 19 11 13 4 12 15 31 25 16 18 29 35 36 56 53 47 43 45 49 48 44 36 33 32 30 25 21 19 18 17 17 18 18 17 17 17 18 20 21
4 4 18 9 16 25 15 19 20 15 15 14 12 12 3 15 24 13 8 22 33 30 39 58 55 49 45 44 46 45 43 36 35 34 33 28 24 21 19 18 17 16 16 15 14 14 14 14 16
10 16 17 12 34 10 15 20 14 6 14 19 21 8 15 13 7 8 5 29 37 28 40 58 54 50 46 44 44 42 40 36 35 36 34 29 26 23 21 20 18 17 15 15 13 12 12 12 13
16 20 17 27 41 9 16 13 6 8 8 12 15 21 16 16 13 9 12 24 39 37 37 52 56 51 47 44 42 41 39 37 37 37 35 31 29 26 24 21 19 17 16 14 13 12 10 10 9
19 30 22 26 35 17 13 12 3 2 4 10 10 19 11 17 10 9 15 25 32 39 45 45 57 54 49 45 43 41 38 38 39 38 36 34 31 30 28 25 22 19 17 15 14 12 10 8 7
26 19 30 38 37 38 19 21 7 7 10 10 13 14 14 21 13 12 16 27 29 36 44 47 54 59 54 50 46 43 41 41 41 40 38 36 34 32 30 28 26 23 20 18 15 13 11 10 9
31 17 36 31 29 24 18 11 8 5 12 6 14 7 13 11 10 7 17 28 36 38 44 42 53 65 61 55 50 47 46 45 43 42 40 38 37 35 34 31 28 24 23 20 18 16 14 12 11
22 15 22 29 30 21 16 5 16 6 15 14 17 21 19 2 6 9 16 27 35 43 47 44 50 69 65 60 56 52 50 49 47 46 45 42 41 38 36 34 31 28 25 23 21 19 17 16 15
18 18 25 32 26 23 30 8 22 17 28 27 25 31 18 19 14 16 23 29 35 40 43 43 50 73 69 64 62 60 58 56 54 53 50 46 42 39 37 39 34 31 29 27 24 22 21 18 12
20 28 34 46 47 23 30 39 38 30 31 32 30 21 22 29 25 27 30 38 44 43 42 43 44 64 69 64 67 66 64 62 60 57 55 49 40 30 30 37 38 37 34 31 28 26 22 10 5
35 46 43 43 47 39 35 35 44 40 44 43 46 46 37 35 37 38 40 35 48 52 52 51 43 54 61 62 62 69 70 67 63 61 57 54 42 39 40 42 38 41 40 36 31 29 22 17 31
33 35 45 47 48 50 41 40 40 55 55 50 54 49 50 41 35 40 42 38 42 62 60 59 55 53 52 58 57 55 69 65 66 62 57 54 50 45 36 40 40 34 38 36 25 18 28 39 40
37 42 42 47 53 52 46 46 48 58 57 57 54 46 33 29 34 35 38 44 42 51 68 66 64 64 62 64 53 59 54 53 56 56 62 56 53 53 45 42 47 39 29 27 34 34 43 35 35
33 32 37 44 52 46 54 41 42 55 59 63 50 39 26 36 36 38 37 45 47 48 68 72 69 64 59 62 52 66 69 69 72 74 66 61 59 54 53 49 48 40 37 42 39 41 40 34 37
33 36 36 38 40 49 30 35 31 37 40 25 24 27 38 47 42 42 51 31 42 44 50 67 67 65 53 63 58 63 71 74 78 70 59 57 65 55 55 55 56 50 49 51 51 51 44 43 35
28 29 38 38 37 35 32 40 30 36 51 42 35 46 49 58 60 35 48 34 37 39 39 56 65 66 63 60 62 50 53 50 50 50 59 53 65 64 58 59 54 56 63 57 56 50 46 40 34
29 34 36 36 38 45 46 49 36 32 46 50 57 63 66 71 53 37 38 30 38 43 40 57 63 64 63 59 65 54 55 55 54 64 62 55 65 67 63 60 63 64 66 52 47 44 44 40 40
35 38 45 42 40 43 41 50 40 47 53 50 56 58 60 54 38 28 32 35 24 30 32 55 61 69 67 61 58 67 59 57 66 67 66 66 61 63 72 69 67 66 62 47 47 45 45 43 39
42 45 46 47 40 42 44 51 44 41 47 64 67 66 58 27 27 28 24 14 13 17 29 41 57 66 63 63 58 63 62 70 73 67 72 70 58 62 78 72 66 67 58 52 50 52 47 39 50
44 40 41 45 43 40 43 59 35 39 48 6 26 12 14 16 21 15 10 6 11 16 23 29 50 58 60 64 60 76 76 77 75 75 65 66 61 60 69 69 67 70 63 59 58 56 46 56 48
47 38 43 40 39 33 33 44 33 36 38 31 6 26 11 8 9 10 7 7 7 14 27 41 47 51 56 55 59 73 83 82 83 74 64 64 59 72 79 76 75 68 64 61 66 58 57 52 68
51 42 45 36 36 38 35 27 25 19 26 25 29 24 18 11 3 1 0 8 27 29 32 40 46 48 51 60 61 62 69 73 77 74 68 66 66 68 65 61 60 58 54 53 51 61 52 58 53
31 33 35 23 26 32 36 32 19 5 24 31 29 25 16 10 7 5 11 18 26 23 33 41 43 46 51 53 55 58 61 66 66 68 66 64 61 57 54 44 36 29 24 23 22 22 13 26 32
29 29 13 16 18 23 33 26 28 17 21 20 19 21 16 12 7 9 11 9 22 17 19 33 41 43 43 49 56 55 62 62 62 55 59 66 60 52 36 14 16 8 12 8 15 35 46 58 61
32 35 14 17 21 24 18 17 7 20 21 23 22 15 25 15 14 14 14 16 19 21 18 23 30 38 40 43 52 57 58 56 49 48 54 55 44 32 20 11 15 16 23 41 36 35 32 50 59
39 34 35 33 28 22 18 31 35 22 22 15 4 0 6 12 15 14 18 16 15 15 15 19 25 28 33 37 40 40 37 32 36 39 39 45 47 36 27 27 19 17 23 22 19 23 24 34 39
48 27 25 16 12 17 19 25 14 8 25 17 6 12 13 17 17 17 17 18 16 14 14 7 9 20 27 28 28 30 32 38 42 48 54 53 40 30 25 30 24 23 25 20 21 18 19 24 25
26 25 22 20 19 9 15 18 8 16 14 9 7 12 20 28 31 28 25 22 22 24 27 28 30 29 29 33 36 38 42 43 45 46 45 36 32 30 28 29 28 30 27 24 23 23 25 26 27
29 29 30 18 33 21 21 39 14 19 17 16 27 35 41 38 26 27 30 31 33 34 32 30 30 29 34 35 39 44 44 45 46 45 41 36 35 35 34 32 31 30 28 27 26 26 25 26 23
Wind_Direction_500mb
304 344 354 306 258 227 263 85 28 42 15 10 349 343 343 314 19 79 133 146 195 199 186 177 172 166 165 166 167 173 175 172 169 170 167 164 159 158 154 145 139 134 131 126 122 116 111 106 107
291 283 281 273 249 263 253 68 57 46 37 357 339 346 292 46 56 103 127 144 194 208 188 180 175 171 168 166 169 173 175 177 176 177 175 173 169 169 167 161 153 146 140 137 131 127 122 118 115
13 317 274 225 246 261 46 55 45 47 59 12 1 349 6 55 49 71 119 139 179 205 188 183 178 175 172 168 172 174 179 183 185 183 183 181 180 178 175 172 166 159 150 144 139 132 128 124 127
326 252 249 255 278 331 36 55 39 19 82 16 4 339 72 59 85 120 165 158 171 182 184 182 181 180 177 173 174 176 183 190 191 189 189 187 185 185 184 181 176 171 166 156 153 148 145 143 139
264 269 261 257 258 229 91 55 26 21 60 316 5 3 41 79 84 102 154 167 176 175 194 184 186 185 184 181 180 182 183 191 193 192 191 193 190 190 190 189 185 182 179 176 170 167 164 161 155
274 252 277 270 300 116 116 99 7 288 21 333 6 349 81 103 91 90 151 168 180 177 197 193 191 190 190 188 188 187 185 190 192 195 196 197 195 194 194 193 193 189 188 186 189 188 187 193 203
252 286 278 291 300 300 145 134 205 7 287 31 357 317 103 89 76 105 146 172 177 185 209 201 198 193 193 194 195 192 189 191 194 197 200 200 200 201 199 197 196 194 191 193 202 210 220 226 235
252 284 275 278 281 291 97 138 97 264 310 14 297 291 7 94 88 117 150 168 177 187 213 212 205 197 195 196 199 197 194 194 197 201 204 205 204 205 204 202 203 203 203 205 216 225 237 247 248
263 263 264 269 275 57 121 244 195 197 274 275 267 275 317 167 120 151 173 177 188 194 215 222 211 199 199 198 199 200 199 199 201 203 206 208 209 207 208 209 208 211 213 216 222 230 237 240 247
226 259 261 283 308 310 313 242 270 282 287 273 235 249 267 241 227 217 203 207 203 201 207 230 209 202 201 200 202 202 202 203 204 206 208 209 212 214 214 215 214 215 220 224 228 230 230 233 243
241 249 269 285 310 321 308 308 300 287 265 274 279 293 269 277 267 228 226 225 220 209 204 220 214 206 204 201 206 206 205 206 206 209 210 209 206 217 209 227 222 223 222 225 228 227 220 183 182
243 253 268 286 288 296 298 289 292 295 283 289 286 282 279 273 261 267 257 223 222 207 204 204 218 212 209 195 216 209 211 210 210 213 215 208 198 212 213 227 240 235 230 228 228 226 207 195 212
261 277 273 270 279 282 282 273 272 270 276 279 276 276 276 276 280 276 273 256 236 211 206 206 201 213 215 192 218 218 215 215 215 216 217 211 196 210 221 234 241 253 232 223 225 206 209 218 219
282 294 297 291 282 280 276 274 275 270 277 271 267 264 267 266 268 277 282 271 243 226 206 207 208 210 211 198 206 216 211 219 215 215 218 210 192 211 222 219 238 243 231 205 213 205 228 229 225
275 275 273 268 269 265 266 262 253 268 272 264 255 267 265 269 267 261 264 274 263 251 209 206 214 218 219 206 210 207 201 203 208 213 216 209 196 209 220 219 223 221 220 213 218 213 227 217 221
278 268 269 271 259 258 224 265 277 285 285 318 289 252 260 263 262 279 280 261 258 251 213 206 213 220 219 203 218 223 224 223 224 222 222 214 203 204 221 222 223 220 216 212 213 217 221 213 219
234 253 264 271 262 282 268 272 264 281 295 286 267 262 258 256 259 264 281 246 253 251 228 210 214 218 224 210 208 222 222 229 222 220 228 225 212 211 221 226 222 218 219 223 224 222 218 212 199
244 257 283 298 307 312 306 297 297 261 253 266 270 276 277 275 276 274 269 258 252 234 245 219 213 217 220 219 220 220 215 226 219 217 226 224 220 215 221 226 224 221 222 226 218 218 211 206 196
268 272 271 274 285 292 290 286 286 286 282 279 276 273 276 281 277 265 267 248 247 233 250 211 209 210 214 214 218 214 219 212 212 211 215 221 222 223 222 225 221 225 222 217 214 214 212 198 189
260 273 276 283 291 295 296 294 301 299 288 275 271 263 266 289 273 248 213 192 213 241 236 206 209 212 218 224 221 213 220 212 217 218 217 225 223 224 224 223 223 226 219 204 217 212 195 190 198
259 265 279 284 292 294 298 283 277 269 260 275 316 356 23 5 12 136 121 38 195 230 226 204 212 222 216 220 218 217 220 223 225 227 224 226 220 223 229 221 236 222 215 201 202 205 200 190 200
258 261 272 287 292 283 289 292 288 284 266 277 300 87 92 90 37 42 75 66 205 240 206 212 210 216 221 228 233 231 231 232 234 236 226 232 237 226 227 225 216 214 204 203 207 198 195 193 184
280 286 278 267 280 289 275 271 291 283 237 214 133 121 109 107 138 356 302 203 223 222 216 208 218 229 243 246 242 243 236 236 238 237 247 246 232 225 226 223 220 213 207 195 200 189 199 182 184
273 275 258 257 267 260 260 242 286 330 51 90 98 113 138 162 181 198 235 250 253 251 225 219 232 229 237 241 238 241 240 237 235 239 237 226 220 219 214 215 212 216 219 225 217 218 198 166 183
245 241 225 226 221 244 255 240 219 143 102 114 129 145 164 171 175 209 224 240 278 262 231 218 221 226 233 236 233 238 238 237 239 241 231 218 214 208 208 166 136 125 295 239 236 216 210 212 205
216 220 201 213 225 252 264 253 232 114 124 144 156 178 174 181 206 217 225 224 254 262 229 215 212 219 222 228 234 234 234 234 236 239 220 213 207 170 148 195 275 266 246 240 223 235 235 224 218
228 214 230 268 289 291 268 282 296 146 108 95 53 334 211 220 242 238 230 230 224 246 238 208 207 213 221 222 226 227 226 225 217 204 196 181 169 182 196 209 199 222 219 216 219 217 219 223 219
235 206 213 220 244 239 245 249 252 82 139 138 181 215 244 236 226 235 240 233 220 211 237 221 198 209 211 212 210 206 199 200 195 185 180 181 184 187 193 193 192 192 187 190 191 190 191 200 201
200 235 236 232 229 250 273 260 338 103 113 50 327 225 213 238 214 212 214 228 225 200 191 178 191 201 194 192 195 195 191 193 186 183 183 188 190 192 190 186 181 182 186 189 192 197 203 209 209
224 213 227 224 237 245 252 266 274 285 340 47 352 331 321 319 239 217 214 211 215 204 190 189 197 208 198 194 190 188 187 186 187 189 188 187 188 184 180 183 184 185 181 184 191 195 195 200 203
Wind_Speed_850mb
13 13 21 22 8 12 32 14 7 25 19 28 20 17 20 21 25 12 24 21 35 38 35 52 50 45 43 46 48 47 45 39 33 31 29 25 21 18 17 17 19 20 19 18 18 18 20 22 23
10 10 17 14 10 15 3 13 26 21 19 11 13 4 12 15 31 25 16 18 29 35 36 56 53 47 43 45 49 48 44 36 33 32 30 25 21 19 18 17 17 18 18 17 17 17 18 20 21
4 4 18 9 16 25 15 19 20 15 15 14 12 12 3 15 24 13 8 22 33 30 39 58 55 49 45 44 46 45 43 36 35 34 33 28 24 21 19 18 17 16 16 15 14 14 14 14 16
10 16 17 12 34 10 15 20 14 6 14 19 21 8 15 13 7 8 5 29 37 28 40 58 54 50 46 44 44 42 40 36 35 36 34 29 26 23 21 20 18 17 15 15 13 12 12 12 13
16 20 17 27 41 9 16 13 6 8 8 12 15 21 16 16 13 9 12 24 39 37 37 52 56 51 47 44 42 41 39 37 37 37 35 31 29 26 24 21 19 17 16 14 13 12 10 10 9
19 30 22 26 35 17 13 12 3 2 4 10 10 19 11 17 10 9 15 25 32 39 45 45 57 54 49 45 43 41 38 38 39 38 36 34 31 30 28 25 22 19 17 15 14 12 10 8 7
26 19 30 38 37 38 19 21 7 7 10 10 13 14 14 21 13 12 16 27 29 36 44 47 54 59 54 50 46 43 41 41 41 40 38 36 34 32 30 28 26 23 20 18 15 13 11 10 9
31 17 36 31 29 24 18 11 8 5 12 6 14 7 13 11 10 7 17 28 36 38 44 42 53 65 61 55 50 47 46 45 43 42 40 38 37 35 34 31 28 24 23 20 18 16 14 12 11
22 15 22 29 30 21 16 5 16 6 15 14 17 21 19 2 6 9 16 27 35 43 47 44 50 69 65 60 56 52 50 49 47 46 45 42 41 38 36 34 31 28 25 23 21 19 17 16 15
18 18 25 32 26 23 30 8 22 17 28 27 25 31 18 19 14 16 23 29 35 40 43 43 50 73 69 64 62 60 58 56 54 53 50 46 42 39 37 39 34 31 29 27 24 22 21 18 12
20 28 34 46 47 23 30 39 38 30 31 32 30 21 22 29 25 27 30 38 44 43 42 43 44 64 69 64 67 66 64 62 60 57 55 49 40 30 30 37 38 37 34 31 28 26 22 10 5
35 46 43 43 47 39 35 35 44 40 44 43 46 46 37 35 37 38 40 35 48 52 52 51 43 54 61 62 62 69 70 67 63 61 57 54 42 39 40 42 38 41 40 36 31 29 22 17 31
33 35 45 47 48 50 41 40 40 55 55 50 54 49 50 41 35 40 42 38 42 62 60 59 55 53 52 58 57 55 69 65 66 62 57 54 50 45 36 40 40 34 38 36 25 18 28 39 40
37 42 42 47 53 52 46 46 48 58 57 57 54 46 33 29 34 35 38 44 42 51 68 66 64 64 62 64 53 59 54 53 56 56 62 56 53 53 45 42 47 39 29 27 34 34 43 35 35
33 32 37 44 52 46 54 41 42 55 59 63 50 39 26 36 36 38 37 45 47 48 68 72 69 64 59 62 52 66 69 69 72 74 66 61 59 54 53 49 48 40 37 42 39 41 40 34 37
33 36 36 38 40 49 30 35 31 37 40 25 24 27 38 47 42 42 51 31 42 44 50 67 67 65 53 63 58 63 71 74 78 70 59 57 65 55 55 55 56 50 49 51 51 51 44 43 35
28 29 38 38 37 35 32 40 30 36 51 42 35 46 49 58 60 35 48 34 37 39 39 56 65 66 63 60 62 50 53 50 50 50 59 53 65 64 58 59 54 56 63 57 56 50 46 40 34
29 34 36 36 38 45 46 49 36 32 46 50 57 63 66 71 53 37 38 30 38 43 40 57 63 64 63 59 65 54 55 55 54 64 62 55 65 67 63 60 63 64 66 52 47 44 44 40 40
35 38 45 42 40 43 41 50 40 47 53 50 56 58 60 54 38 28 32 35 24 30 32 55 61 69 67 61 58 67 59 57 66 67 66 66 61 63 72 69 67 66 62 47 47 45 45 43 39
42 45 46 47 40 42 44 51 44 41 47 64 67 66 58 27 27 28 24 14 13 17 29 41 57 66 63 63 58 63 62 70 73 67 72 70 58 62 78 72 66 67 58 52 50 52 47 39 50
44 40 41 45 43 40 43 59 35 39 48 6 26 12 14 16 21 15 10 6 11 16 23 29 50 58 60 64 60 76 76 77 75 75 65 66 61 60 69 69 67 70 63 59 58 56 46 56 48
47 38 43 40 39 33 33 44 33 36 38 31 6 26 11 8 9 10 7 7 7 14 27 41 47 51 56 55 59 73 83 82 83 74 64 64 59 72 79 76 75 68 64 61 66 58 57 52 68
51 42 45 36 36 38 35 27 25 19 26 25 29 24 18 11 3 1 0 8 27 29 32 40 46 48 51 60 61 62 69 73 77 74 68 66 66 68 65 61 60 58 54 53 51 61 52 58 53
31 33 35 23 26 32 36 32 19 5 24 31 29 25 16 10 7 5 11 18 26 23 33 41 43 46 51 53 55 58 61 66 66 68 66 64 61 57 54 44 36 29 24 23 22 22 13 26 32
29 29 13 16 18 23 33 26 28 17 21 20 19 21 16 12 7 9 11 9 22 17 19 33 41 43 43 49 56 55 62 62 62 55 59 66 60 52 36 14 16 8 12 8 15 35 46 58 61
32 35 14 17 21 24 18 17 7 20 21 23 22 15 25 15 14 14 14 16 19 21 18 23 30 38 40 43 52 57 58 56 49 48 54 55 44 32 20 11 15 16 23 41 36 35 32 50 59
39 34 35 33 28 22 18 31 35 22 22 15 4 0 6 12 15 14 18 16 15 15 15 19 25 28 33 37 40 40 37 32 36 39 39 45 47 36 27 27 19 17 23 22 19 23 24 34 39
48 27 25 16 12 17 19 25 14 8 25 17 6 12 13 17 17 17 17 18 16 14 14 7 9 20 27 28 28 30 32 38 42 48 54 53 40 30 25 30 24 23 25 20 21 18 19 24 25
26 25 22 20 19 9 15 18 8 16 14 9 7 12 20 28 31 28 25 22 22 24 27 28 30 29 29 33 36 38 42 43 45 46 45 36 32 30 28 29 28 30 27 24 23 23 25 26 27
29 29 30 18 33 21 21 39 14 19 17 16 27 35 41 38 26 27 30 31 33 34 32 30 30 29 34 35 39 44 44 45 46 45 41 36 35 35 34 32 31 30 28 27 26 26 25 26 23
Wind_Direction_850mb
304 344 354 306 258 227 263 85 28 42 15 10 349 343 343 314 19 79 133 146 195 199 186 177 172 166 165 166 167 173 175 172 169 170 167 164 159 158 154 145 139 134 131 126 122 116 111 106 107
291 283 281 273 249 263 253 68 57 46 37 357 339 346 292 46 56 103 127 144 194 208 188 180 175 171 168 166 169 173 175 177 176 177 175 173 169 169 167 161 153 146 140 137 131 127 122 118 115
13 317 274 225 246 261 46 55 45 47 59 12 1 349 6 55 49 71 119 139 179 205 188 183 178 175 172 168 172 174 179 183 185 183 183 181 180 178 175 172 166 159 150 144 139 132 128 124 127
326 252 249 255 278 331 36 55 39 19 82 16 4 339 72 59 85 120 165 158 171 182 184 182 181 180 177 173 174 176 183 190 191 189 189 187 185 185 184 181 176 171 166 156 153 148 145 143 139
264 269 261 257 258 229 91 55 26 21 60 316 5 3 41 79 84 102 154 167 176 175 194 184 186 185 184 181 180 182 183 191 193 192 191 193 190 190 190 189 185 182 179 176 170 167 164 161 155
274 252 277 270 300 116 116 99 7 288 21 333 6 349 81 103 91 90 151 168 180 177 197 193 191 190 190 188 188 187 185 190 192 195 196 197 195 194 194 193 193 189 188 186 189 188 187 193 203
252 286 278 291 300 300 145 134 205 7 287 31 357 317 103 89 76 105 146 172 177 185 209 201 198 193 193 194 195 192 189 191 194 197 200 200 200 201 199 197 196 194 191 193 202 210 220 226 235
252 284 275 278 281 291 97 138 97 264 310 14 297 291 7 94 88 117 150 168 177 187 213 212 205 197 195 196 199 197 194 194 197 201 204 205 204 205 204 202 203 203 203 205 216 225 237 247 248
263 263 264 269 275 57 121 244 195 197 274 275 267 275 317 167 120 151 173 177 188 194 215 222 211 199 199 198 199 200 199 199 201 203 206 208 209 207 208 209 208 211 213 216 222 230 237 240 247
226 259 261 283 308 310 313 242 270 282 287 273 235 249 267 241 227 217 203 207 203 201 207 230 209 202 201 200 202 202 202 203 204 206 208 209 212 214 214 215 214 215 220 224 228 230 230 233 243
241 249 269 285 310 321 308 308 300 287 265 274 279 293 269 277 267 228 226 225 220 209 204 220 214 206 204 201 206 206 205 206 206 209 210 209 206 217 209 227 222 223 222 225 228 227 220 183 182
243 253 268 286 288 296 298 289 292 295 283 289 286 282 279 273 261 267 257 223 222 207 204 204 218 212 209 195 216 209 211 210 210 213 215 208 198 212 213 227 240 235 230 228 228 226 207 195 212
261 277 273 270 279 282 282 273 272 270 276 279 276 276 276 276 280 276 273 256 236 211 206 206 201 213 215 192 218 218 215 215 215 216 217 211 196 210 221 234 241 253 232 223 225 206 209 218 219
282 294 297 291 282 280 276 274 275 270 277 271 267 264 267 266 268 277 282 271 243 226 206 207 208 210 211 198 206 216 211 219 215 215 218 210 192 211 222 219 238 243 231 205 213 205 228 229 225
275 275 273 268 269 265 266 262 253 268 272 264 255 267 265 269 267 261 264 274 263 251 209 206 214 218 219 206 210 207 201 203 208 213 216 209 196 209 220 219 223 221 220 213 218 213 227 217 221
278 268 269 271 259 258 224 265 277 285 285 318 289 252 260 263 262 279 280 261 258 251 213 206 213 220 219 203 218 223 224 223 224 222 222 214 203 204 221 222 223 220 216 212 213 217 221 213 219
234 253 264 271 262 282 268 272 264 281 295 286 267 262 258 256 259 264 281 246 253 251 228 210 214 218 224 210 208 222 222 229 222 220 228 225 212 211 221 226 222 218 219 223 224 222 218 212 199
244 257 283 298 307 312 306 297 297 261 253 266 270 276 277 275 276 274 269 258 252 234 245 219 213 217 220 219 220 220 215 226 219 217 226 224 220 215 221 226 224 221 222 226 218 218 211 206 196
268 272 271 274 285 292 290 286 286 286 282 279 276 273 276 281 277 265 267 248 247 233 250 211 209 210 214 214 218 214 219 212 212 211 215 221 222 223 222 225 221 225 222 217 214 214 212 198 189
260 273 276 283 291 295 296 294 301 299 288 275 271 263 266 289 273 248 213 192 213 241 236 206 209 212 218 224 221 213 220 212 217 218 217 225 223 224 224 223 223 226 219 204 217 212 195 190 198
259 265 279 284 292 294 298 283 277 269 260 275 316 356 23 5 12 136 121 38 195 230 226 204 212 222 216 220 218 217 220 223 225 227 224 226 220 223 229 221 236 222 215 201 202 205 200 190 200
258 261 272 287 292 283 289 292 288 284 266 277 300 87 92 90 37 42 75 66 205 240 206 212 210 216 221 228 233 231 231 232 234 236 226 232 237 226 227 225 216 214 204 203 207 198 195 193 184
280 286 278 267 280 289 275 271 291 283 237 214 133 121 109 107 138 356 302 203 223 222 216 208 218 229 243 246 242 243 236 236 238 237 247 246 232 225 226 223 220 213 207 195 200 189 199 182 184
273 275 258 257 267 260 260 242 286 330 51 90 98 113 138 162 181 198 235 250 253 251 225 219 232 229 237 241 238 241 240 237 235 239 237 226 220 219 214 215 212 216 219 225 217 218 198 166 183
245 241 225 226 221 244 255 240 219 143 102 114 129 145 164 171 175 209 224 240 278 262 231 218 221 226 233 236 233 238 238 237 239 241 231 218 214 208 208 166 136 125 295 239 236 216 210 212 205
216 220 201 213 225 252 264 253 232 114 124 144 156 178 174 181 206 217 225 224 254 262 229 215 212 219 222 228 234 234 234 234 236 239 220 213 207 170 148 195 275 266 246 240 223 235 235 224 218
228 214 230 268 289 291 268 282 296 146 108 95 53 334 211 220 242 238 230 230 224 246 238 208 207 213 221 222 226 227 226 225 217 204 196 181 169 182 196 209 199 222 219 216 219 217 219 223 219
235 206 213 220 244 239 245 249 252 82 139 138 181 215 244 236 226 235 240 233 220 211 237 221 198 209 211 212 210 206 199 200 195 185 180 181 184 187 193 193 192 192 187 190 191 190 191 200 201
200 235 236 232 229 250 273 260 338 103 113 50 327 225 213 238 214 212 214 228 225 200 191 178 191 201 194 192 195 195 191 193 186 183 183 188 190 192 190 186 181 182 186 189 192 197 203 209 209
224 213 227 224 237 245 252 266 274 285 340 47 352 331 321 319 239 217 214 211 215 204 190 189 197 208 198 194 190 188 187 186 187 189 188 187 188 184 180 183 184 185 181 184 191 195 195 200 203